Change the Weather History Date:

Monday, June 9, 2014

  Actual Average Record
Temperature  
Mean Temperature 66 °F -  
Max Temperature 80 °F 81 °F 96 °F (1968)
Min Temperature 51 °F 56 °F 37 °F (1969)
Growing Degree Days 16 (Base 50)    
Moisture  
Dew Point 52 °F    
Average Humidity 59    
Maximum Humidity 81    
Minimum Humidity 43    
Precipitation  
Precipitation 0.00 in - - ()
Sea Level Pressure  
Sea Level Pressure 29.96 in    
Wind  
Wind Speed 6 mph (East)    
Max Wind Speed 15 mph    
Max Gust Speed -    
Visibility 10 miles    
Events      
Averages and records for this station are not official NWS values.
T = Trace of Precipitation, MM = Missing Value Source: NWS Daily Summary

Daily Weather History Graph

Daily Weather History Graph

Search for Another Location

Airport or City:

Trip Planner

Search our weather history database for the weather conditions in past years. The results will help you decide how hot, cold, wet, or windy it might be!

Date:

Astronomy

Jun. 09, 2014 Rise Set
Actual Time 5:23 AM CDT 8:28 PM CDT
Civil Twilight 4:49 AM CDT 9:02 PM CDT
Nautical Twilight 4:06 AM CDT 9:45 PM CDT
Astronomical Twilight 3:15 AM CDT 10:36 PM CDT
Moon 4:47 PM CDT (6/9) 2:52 AM CDT (6/9)
Length of Visible Light 16h 13m
Length of Day
15h 05m
Waxing Gibbous, 85% of the Moon is Illuminated
Jun 9
Waxing Gibbous
Jun 12
Full
Jun 19
Last Quarter
Jun 27
New
Jul 5
First Quarter

Hourly Weather History & Observations

Time (CDT) Temp. Heat Index Dew Point Humidity Pressure Visibility Wind Dir Wind Speed Gust Speed Precip Events Conditions
12:15 AM 59.2 °F - 40.8 °F 51% 30.04 in 10.0 mi East 5.8 mph - N/A   Clear
12:35 AM 58.1 °F - 41.2 °F 53% 30.04 in 10.0 mi ENE 5.8 mph - N/A   Clear
12:55 AM 58.1 °F - 41.2 °F 53% 30.04 in 10.0 mi ENE 4.6 mph - N/A   Clear
1:15 AM 57.9 °F - 41.7 °F 55% 30.03 in 10.0 mi ENE 4.6 mph - N/A   Clear
1:35 AM 56.7 °F - 41.7 °F 57% 30.03 in 10.0 mi ENE 4.6 mph - N/A   Clear
1:55 AM 56.7 °F - 41.4 °F 57% 30.02 in 10.0 mi ENE 4.6 mph - N/A   Clear
2:15 AM 56.8 °F - 41.7 °F 57% 30.02 in 10.0 mi NE 3.5 mph - N/A   Clear
2:35 AM 56.3 °F - 43.2 °F 61% 30.02 in 10.0 mi NNE 4.6 mph - N/A   Clear
2:55 AM 56.3 °F - 42.4 °F 60% 30.01 in 10.0 mi NNE 3.5 mph - N/A   Clear
3:15 AM 53.6 °F - 44.4 °F 71% 30.01 in 10.0 mi Calm Calm - N/A   Clear
3:35 AM 54.7 °F - 44.4 °F 68% 30.00 in 10.0 mi Calm Calm - N/A   Clear
3:55 AM 55.4 °F - 43.5 °F 64% 29.99 in 10.0 mi NE 3.5 mph - N/A   Clear
4:15 AM 54.9 °F - 43.2 °F 65% 29.99 in 10.0 mi ENE 3.5 mph - N/A   Clear
4:35 AM 54.7 °F - 43.5 °F 66% 29.99 in 10.0 mi NE 6.9 mph - N/A   Clear
4:55 AM 54.7 °F - 44.6 °F 69% 30.00 in 10.0 mi NE 4.6 mph - N/A   Clear
5:15 AM 53.4 °F - 44.1 °F 71% 30.00 in 10.0 mi ENE 5.8 mph - N/A   Clear
5:35 AM 53.4 °F - 44.6 °F 72% 30.01 in 10.0 mi North 5.8 mph - N/A   Clear
5:55 AM 51.3 °F - 45.7 °F 81% 30.02 in 10.0 mi NNW 5.8 mph - N/A   Clear
6:15 AM 52.5 °F - 45.5 °F 77% 30.02 in 10.0 mi North 4.6 mph - N/A   Clear
6:35 AM 54.7 °F - 46.6 °F 74% 30.02 in 10.0 mi NNE 5.8 mph - N/A   Clear
6:55 AM 56.3 °F - 46.6 °F 70% 30.02 in 10.0 mi NNE 8.1 mph - N/A   Clear
7:15 AM 56.7 °F - 46.6 °F 69% 30.01 in 10.0 mi NE 9.2 mph - N/A   Clear
7:35 AM 58.1 °F - 47.1 °F 67% 30.01 in 10.0 mi East 5.8 mph - N/A   Clear
7:55 AM 59.9 °F - 47.7 °F 64% 30.00 in 10.0 mi East 8.1 mph - N/A   Clear
8:15 AM 60.4 °F - 47.5 °F 62% 30.00 in 10.0 mi East 6.9 mph - N/A   Clear
8:35 AM 61.7 °F - 48.7 °F 62% 29.99 in 10.0 mi East 6.9 mph - N/A   Clear
8:55 AM 63.3 °F - 48.7 °F 59% 29.99 in 10.0 mi ESE 4.6 mph - N/A   Clear
9:15 AM 64.9 °F - 50.0 °F 58% 29.99 in 10.0 mi SE 6.9 mph - N/A   Clear
9:35 AM 66.2 °F - 50.7 °F 57% 29.99 in 10.0 mi SE 4.6 mph - N/A   Clear
9:55 AM 67.6 °F - 52.7 °F 59% 29.98 in 10.0 mi East 4.6 mph - N/A   Clear
10:15 AM 68.4 °F - 54.0 °F 60% 29.99 in 10.0 mi East 3.5 mph - N/A   Clear
10:35 AM 70.0 °F - 54.9 °F 59% 29.99 in 10.0 mi SSE 4.6 mph - N/A   Clear
10:55 AM 70.9 °F - 55.8 °F 59% 29.98 in 10.0 mi ESE 3.5 mph - N/A   Clear
11:15 AM 73.4 °F - 57.2 °F 57% 29.98 in 10.0 mi Calm Calm - N/A   Clear
11:35 AM 72.7 °F - 56.8 °F 57% 29.98 in 10.0 mi Calm Calm - N/A   Clear
11:55 AM 73.9 °F - 55.6 °F 53% 29.98 in 10.0 mi SE 5.8 mph - N/A   Clear
12:15 PM 75.2 °F - 56.7 °F 52% 29.98 in 10.0 mi South 3.5 mph - N/A   Clear
12:35 PM 75.6 °F - 57.6 °F 53% 29.97 in 10.0 mi Calm Calm - N/A   Clear
12:55 PM 76.1 °F - 57.0 °F 51% 29.97 in 10.0 mi SSE 5.8 mph - N/A   Clear
1:15 PM 77.0 °F - 57.4 °F 51% 29.96 in 10.0 mi ESE 4.6 mph - N/A   Clear
1:35 PM 78.1 °F - 57.9 °F 50% 29.94 in 10.0 mi SE 6.9 mph - N/A   Scattered Clouds
2:15 PM 78.8 °F - 57.2 °F 47% 29.92 in 10.0 mi South 6.9 mph - N/A   Scattered Clouds
2:35 PM 80.2 °F 80.7 °F 58.5 °F 47% 29.92 in 10.0 mi East 3.5 mph - N/A   Scattered Clouds
2:55 PM 80.2 °F 80.6 °F 57.6 °F 46% 29.91 in 10.0 mi South 6.9 mph - N/A   Scattered Clouds
3:15 PM 79.7 °F - 57.4 °F 46% 29.91 in 10.0 mi NE 3.5 mph - N/A   Scattered Clouds
3:35 PM 79.5 °F - 59.2 °F 50% 29.90 in 10.0 mi SE 5.8 mph - N/A   Scattered Clouds
3:55 PM 80.6 °F 81.1 °F 59.0 °F 48% 29.90 in 10.0 mi ENE 5.8 mph - N/A   Scattered Clouds
4:15 PM 80.1 °F 80.6 °F 57.9 °F 47% 29.90 in 10.0 mi ENE 6.9 mph - N/A   Scattered Clouds
4:35 PM 80.2 °F 80.6 °F 57.6 °F 46% 29.90 in 10.0 mi East 9.2 mph - N/A   Mostly Cloudy
4:55 PM 78.6 °F - 57.9 °F 49% 29.90 in 10.0 mi East 9.2 mph - N/A   Mostly Cloudy
5:15 PM 77.9 °F - 57.7 °F 50% 29.89 in 10.0 mi ENE 6.9 mph - N/A   Mostly Cloudy
5:35 PM 77.9 °F - 58.3 °F 51% 29.88 in 10.0 mi ENE 8.1 mph - N/A   Scattered Clouds
5:55 PM 78.8 °F - 57.2 °F 47% 29.88 in 10.0 mi East 4.6 mph - N/A   Clear
6:15 PM 80.2 °F 80.4 °F 55.9 °F 43% 29.88 in 10.0 mi East 4.6 mph - N/A   Clear
6:35 PM 79.2 °F - 57.2 °F 47% 29.88 in 10.0 mi East 6.9 mph - N/A   Clear
6:55 PM 79.0 °F - 55.2 °F 44% 29.87 in 10.0 mi East 6.9 mph - N/A   Scattered Clouds
7:15 PM 78.3 °F - 55.6 °F 45% 29.87 in 10.0 mi ESE 8.1 mph - N/A   Scattered Clouds
7:35 PM 77.9 °F - 56.7 °F 48% 29.88 in 10.0 mi ESE 6.9 mph - N/A   Mostly Cloudy
7:55 PM 77.0 °F - 57.2 °F 50% 29.87 in 10.0 mi ESE 5.8 mph - N/A   Overcast
8:15 PM 75.9 °F - 56.5 °F 51% 29.87 in 10.0 mi ESE 5.8 mph - N/A   Scattered Clouds
8:35 PM 75.6 °F - 56.5 °F 51% 29.88 in 10.0 mi East 9.2 mph - N/A   Mostly Cloudy
8:55 PM 72.9 °F - 59.9 °F 64% 29.88 in 10.0 mi East 13.8 mph - N/A   Scattered Clouds
9:15 PM 71.8 °F - 59.9 °F 66% 29.89 in 10.0 mi East 10.4 mph - N/A   Clear
9:35 PM 71.1 °F - 59.9 °F 68% 29.89 in 10.0 mi East 6.9 mph - N/A   Clear
9:55 PM 70.0 °F - 59.2 °F 68% 29.90 in 10.0 mi East 9.2 mph - N/A   Clear
10:15 PM 69.4 °F - 58.6 °F 68% 29.91 in 10.0 mi East 11.5 mph - N/A   Scattered Clouds
10:35 PM 68.4 °F - 58.5 °F 71% 29.91 in 10.0 mi ENE 13.8 mph - N/A   Overcast
10:55 PM 67.5 °F - 57.9 °F 71% 29.91 in 10.0 mi East 15.0 mph - N/A   Scattered Clouds
11:15 PM 67.1 °F - 57.6 °F 71% 29.92 in 10.0 mi East 11.5 mph - N/A   Clear
11:35 PM 66.2 °F - 57.2 °F 73% 29.91 in 10.0 mi East 11.5 mph - N/A   Clear
11:55 PM 65.8 °F - 56.7 °F 72% 29.91 in 10.0 mi ENE 9.2 mph - N/A   Clear